星链-1378 (STARLINK-1378 )

导读 | 豆包AI

STARLINK-1378是美国太空探索技术公司星链低轨互联网星座的卫星,于2020年4月22日由猎鹰9号火箭发射升空,属于星链早期组网批次卫星。星链计划旨在为全球提供高速低延迟互联网服务,该卫星入轨后参与星座运行,服务全球多地互联覆盖,不过也引发过天文观测等领域争议。

基本信息
目录编号:
45548
目录名称:
STARLINK-1378
国际标识:
2020-025T
轨道中心:
EARTH
卫星名称:
星链-1378
卫星全名:
星链-1378 (STARLINK-1378 )
卫星状态:
已陨落 最后检测时间 2025-02-26
发射日期:
2020-04-22 UTC
国别 :
美国 (US)
星等 :
--
轨道信息
数据来源 国际轨道数据
星历时间: 2025-02-25T18:25:26+0800
轨道信息已过期427天
半长轴: 6550.841km
偏心率: 0.0007118
轨道倾角: 53.024°
近地点辐角 223.094°
升交点赤经 312.394°
平近点角 306.156°
近地点: 168.043km
远地点: 177.369km
周期: 87.944分钟
每日圈数: 16.374091
详细信息
固有亮度:
5
最大亮度:
2.5
卫星平台:
Starlink V1.0
覆盖范围:
全球
运营商:
太空探索技术公司
运营商所在国:
美国
制造商(研发单位):
太空探索技术公司
制造商所在国:
美国
使用方式:
暂无
卫星简介
星链(Starlink)计划是由太空探索技术公司(SpaceX)提出的一个巨型低轨卫星互联网星座项目,计划在2019年至2024年间在太空搭建由约1.2万颗卫星组成的“星链”网络,其中1584颗将部署在地球上空550千米处的近地轨道,并从2020年开始工作。该卫星仍在工作。